Location: Ariel
(45.9570°N, 122.5700°W)
Time: 06:34:33
(UTC-08:00)

Transit 4A - Pass Details

Date: 03 November 2020
Orbit: 862 x 982 km, 66.8° (Epoch: 03 December)

Event Time Altitude Azimuth Distance (km) Brightness Sun altitude
Rises 20:30:08 0° 328° (NNW) 3,695 11.6 -37.9°
Reaches altitude 10° 20:33:21 10° 343° (NNW) 2,745 10.7 -38.4°
Enters shadow 20:35:00 16° 355° (N) 2,350 10.2 -38.7°
